Location: Unspecified
(0.0000°N, 0.0000°E)
Time: 00:02:45
(UTC+01:00)

Transit 2A - Visible Passes

Search period start: 21 November 2017 00:00
Search period end: 01 December 2017 00:00
Orbit: 591 x 968 km, 66.7° (Epoch: 20 November)

Date Brightness Start Highest point End Pass type
(mag) Time Alt. Az. Time Alt. Az. Time Alt. Az.
21 Nov 7.7 19:47:58 10° SW 19:52:22 31° WNW 19:57:11 10° N visible
22 Nov 6.8 19:13:30 10° SSW 19:18:18 54° WNW 19:23:39 10° N visible
23 Nov 7.9 06:06:22 10° N 06:11:24 31° ENE 06:16:00 10° SE visible
24 Nov 8.6 05:33:22 10° NNE 05:37:18 19° ENE 05:41:00 10° ESE visible
25 Nov 8.9 05:01:43 10° NE 05:03:11 11° ENE 05:04:36 10° E visible
25 Nov 8.7 19:16:08 10° WSW 19:19:24 17° WNW 19:22:53 10° NNW visible
26 Nov 6.1 06:06:40 10° NNW 06:12:24 84° WSW 06:17:32 10° SSE visible
27 Nov 6.6 05:32:46 10° N 05:38:24 58° ENE 05:43:26 10° SSE visible
28 Nov 7.5 05:00:06 14° N 05:04:20 34° ENE 05:09:01 10° SE visible
29 Nov 8.2 04:28:09 17° NE 04:30:15 21° ENE 04:34:08 10° ESE visible
29 Nov 7.1 06:08:44 10° NW 06:13:12 26° WSW 06:17:23 10° SSW visible
30 Nov 8.7 03:56:08 12° ENE 03:56:08 12° ENE 03:58:16 10° E visible
30 Nov 6.4 05:36:42 26° NW 05:39:16 43° WSW 05:44:04 10° S visible
